CW2401 Weather Reports


time (UTC)temp
C
wind
direction
speed
KPH
gust
KPH
rain 1hr
cm
rain 24hr
cm
rain mn
cm
humidity
%
barometer
mb
20260505080222 13 71 0.0 0.0 0.00 0.00 0.00 81 1016.4
20260505080024 13 71 0.0 0.0 0.00 0.00 0.00 81 1016.4
20260505075823 13 71 0.0 0.0 0.00 0.00 0.00 81 1016.4
20260505075623 13 71 0.0 0.0 0.00 0.00 0.00 81 1016.4
20260505075423 14 71 0.0 0.0 0.00 0.00 0.00 80 1016.4
20260505075222 14 71 0.0 0.0 0.00 0.00 0.00 80 1016.4
20260505074624 14 71 0.0 0.0 0.00 0.00 0.00 79 1016.3
20260505074424 14 71 0.0 0.0 0.00 0.00 0.00 79 1016.3
20260505074223 14 71 0.0 0.0 0.00 0.00 0.00 79 1016.3
20260505074024 14 71 0.0 0.0 0.00 0.00 0.00 79 1016.2
20260505073824 14 71 0.0 0.0 0.00 0.00 0.00 79 1016.2
20260505073624 14 71 0.0 0.0 0.00 0.00 0.00 78 1016.2
20260505073424 14 71 0.0 0.0 0.00 0.00 0.00 79 1016.2
20260505073224 14 71 0.0 0.0 0.00 0.00 0.00 78 1016.2
20260505073022 14 71 0.0 1.6 0.00 0.00 0.00 78 1016.2
20260505072822 15 71 0.0 1.6 0.00 0.00 0.00 78 1016.2
20260505072624 15 71 0.0 1.6 0.00 0.00 0.00 78 1016.2
20260505072222 15 71 0.0 1.6 0.00 0.00 0.00 78 1016.2
20260505071822 15 71 0.0 1.6 0.00 0.00 0.00 77 1016.1
20260505071425 15 71 0.0 1.6 0.00 0.00 0.00 77 1015.9
20260505071222 15 71 0.0 1.6 0.00 0.00 0.00 76 1015.9
20260505071022 15 71 0.0 1.6 0.00 0.00 0.00 77 1015.9
20260505070826 15 71 0.0 1.6 0.00 0.00 0.00 76 1015.9
20260505070621 15 71 0.0 1.6 0.00 0.00 0.00 76 1016.1
20260505070419 15 71 0.0 1.6 0.00 0.00 0.00 76 1016.1
20260505070219 15 71 0.0 1.6 0.00 0.00 0.00 76 1015.9
20260505065813 15 71 0.0 0.0 0.00 0.00 0.00 75 1016.1
20260505065611 15 71 0.0 0.0 0.00 0.00 0.00 75 1016.1
20260505065410 16 71 0.0 1.6 0.00 0.00 0.00 75 1015.9
20260505065208 16 71 0.0 1.6 0.00 0.00 0.00 74 1015.9
20260505065005 16 71 0.0 1.6 0.00 0.00 0.00 75 1015.9
20260505064800 16 71 0.0 1.6 0.00 0.00 0.00 75 1015.9
20260505064603 16 71 0.0 1.6 0.00 0.00 0.00 74 1015.9
20260505064400 16 71 0.0 1.6 0.00 0.00 0.00 74 1015.9
20260505064159 16 71 0.0 1.6 0.00 0.00 0.00 74 1016.1
20260505063956 16 71 0.0 1.6 0.00 0.00 0.00 74 1015.9
20260505063756 16 71 0.0 0.0 0.00 0.00 0.00 74 1015.9
20260505063554 16 71 0.0 0.0 0.00 0.00 0.00 74 1015.9
20260505063354 16 71 0.0 1.6 0.00 0.00 0.00 74 1015.9
20260505063150 16 71 0.0 4.8 0.00 0.00 0.00 74 1015.9
20260505062144 16 72 0.0 6.4 0.00 0.00 0.00 74 1015.9
20260505061745 16 72 0.0 6.4 0.00 0.00 0.00 72 1015.9
20260505061543 16 71 0.0 6.4 0.00 0.00 0.00 72 1015.9
20260505061344 16 69 0.0 3.2 0.00 0.00 0.00 72 1015.9
20260505061143 16 69 0.0 3.2 0.00 0.00 0.00 72 1015.9
20260505060941 16 69 0.0 4.8 0.00 0.00 0.00 72 1015.9
20260505060740 16 69 0.0 4.8 0.00 0.00 0.00 72 1015.9
20260505060337 16 69 0.0 4.8 0.00 0.00 0.00 72 1015.9
20260505060136 16 69 1.6 4.8 0.00 0.00 0.00 72 1016.1
20260505055936 16 69 1.6 4.8 0.00 0.00 0.00 72 1015.9
20260505055737 16 69 0.0 4.8 0.00 0.00 0.00 72 1015.9
20260505055536 16 73 0.0 4.8 0.00 0.00 0.00 72 1015.9
20260505055332 16 74 0.0 4.8 0.00 0.00 0.00 72 1015.9
20260505055133 16 73 0.0 6.4 0.00 0.00 0.00 71 1016.1
20260505054930 16 74 1.6 6.4 0.00 0.00 0.00 72 1015.9
20260505054728 16 74 1.6 6.4 0.00 0.00 0.00 71 1015.9
20260505054528 16 73 1.6 6.4 0.00 0.00 0.00 71 1015.9
20260505053929 16 74 0.0 4.8 0.00 0.00 0.00 71 1015.8
20260505053727 16 76 0.0 3.2 0.00 0.00 0.00 71 1015.8
20260505053326 16 78 1.6 6.4 0.00 0.00 0.00 71 1015.8
20260505052922 16 78 1.6 6.4 0.00 0.00 0.00 71 1015.8
20260505052723 16 78 1.6 8.0 0.00 0.00 0.00 71 1015.8
20260505052522 16 78 1.6 8.0 0.00 0.00 0.00 71 1015.9
20260505052322 16 142 0.0 8.0 0.00 0.00 0.00 71 1015.9
20260505051921 16 78 0.0 8.0 0.00 0.00 0.00 71 1015.9
20260505051720 16 90 1.6 6.4 0.00 0.00 0.00 71 1016.1
20260505051522 16 90 1.6 6.4 0.00 0.00 0.00 71 1016.1
20260505051321 16 90 1.6 6.4 0.00 0.00 0.00 71 1016.1
20260505050917 16 92 1.6 6.4 0.00 0.00 0.00 72 1016.1
20260505050716 16 85 1.6 6.4 0.00 0.00 0.00 72 1015.9
20260505050514 16 111 1.6 6.4 0.00 0.00 0.00 72 1015.9
20260505050314 16 119 1.6 6.4 0.00 0.00 0.00 72 1015.9
20260505050110 16 119 1.6 6.4 0.00 0.00 0.00 72 1016.1
20260505041455 16 88 0.0 4.8 0.00 0.00 0.00 68 1016.1
20260505041254 16 88 0.0 4.8 0.00 0.00 0.00 68 1016.1
20260505041054 17 88 0.0 4.8 0.00 0.00 0.00 69 1016.1
20260505040855 17 94 0.0 4.8 0.00 0.00 0.00 68 1015.9
20260505040653 17 94 0.0 4.8 0.00 0.00 0.00 68 1016.1
20260505040450 17 93 0.0 4.8 0.00 0.00 0.00 68 1015.9
20260505040047 17 183 0.0 3.2 0.00 0.00 0.00 67 1016.1
20260505035844 17 183 0.0 3.2 0.00 0.00 0.00 68 1015.9
20260505035645 17 183 0.0 3.2 0.00 0.00 0.00 67 1016.1
20260505035444 17 183 0.0 3.2 0.00 0.00 0.00 67 1016.1
20260505035244 17 183 1.6 4.8 0.00 0.00 0.00 67 1016.1
20260505035042 17 228 1.6 4.8 0.00 0.00 0.00 67 1016.1
20260505034840 17 228 1.6 4.8 0.00 0.00 0.00 67 1016.1
20260505034641 17 228 1.6 4.8 0.00 0.00 0.00 67 1016.1
20260505034440 16 228 1.6 4.8 0.00 0.00 0.00 66 1016.1
20260505034239 16 321 1.6 4.8 0.00 0.00 0.00 66 1015.9
20260505034039 16 74 1.6 4.8 0.00 0.00 0.00 65 1016.1
20260505033840 16 74 1.6 4.8 0.00 0.00 0.00 66 1016.1
20260505033238 16 32 0.0 4.8 0.00 0.00 0.00 65 1016.1
20260505033037 16 243 0.0 0.0 0.00 0.00 0.00 65 1016.2
20260505032639 16 242 0.0 0.0 0.00 0.00 0.00 66 1016.1
20260505032438 16 242 0.0 0.0 0.00 0.00 0.00 65 1016.1
20260505032239 16 242 0.0 0.0 0.00 0.00 0.00 66 1016.1
20260505032037 16 242 0.0 0.0 0.00 0.00 0.00 64 1016.1
20260505031838 16 242 0.0 4.8 0.00 0.00 0.00 65 1016.1
20260505031637 16 242 0.0 4.8 0.00 0.00 0.00 65 1016.1
20260505031435 16 234 0.0 4.8 0.00 0.00 0.00 65 1016.1
20260505031235 16 234 0.0 4.8 0.00 0.00 0.00 64 1016.1
20260505031031 16 234 0.0 4.8 0.00 0.00 0.00 65 1016.1
20260505030829 16 112 0.0 1.6 0.00 0.00 0.00 65 1016.1
20260505030632 16 112 0.0 3.2 0.00 0.00 0.00 65 1016.1
20260505030430 16 112 0.0 3.2 0.00 0.00 0.00 65 1016.1
20260505030031 16 112 0.0 3.2 0.00 0.00 0.00 66 1016.1
20260505025829 16 112 0.0 3.2 0.00 0.00 0.00 66 1016.1
20260505025629 16 112 0.0 0.0 0.00 0.00 0.00 65 1016.1
20260505025429 16 112 0.0 1.6 0.00 0.00 0.00 65 1015.9
20260505025227 16 112 0.0 3.2 0.00 0.00 0.00 66 1015.9
20260505025025 16 112 0.0 3.2 0.00 0.00 0.00 66 1015.9
20260505024623 16 112 1.6 4.8 0.00 0.00 0.00 66 1015.9
20260505024422 16 112 0.0 4.8 0.00 0.00 0.00 67 1015.9
20260505024221 16 117 0.0 4.8 0.00 0.00 0.00 67 1015.8
20260505024021 16 140 0.0 4.8 0.00 0.00 0.00 65 1015.8
20260505023821 16 140 0.0 4.8 0.00 0.00 0.00 66 1015.8
20260505023620 16 64 0.0 0.0 0.00 0.00 0.00 66 1015.8
20260505023419 16 64 0.0 0.0 0.00 0.00 0.00 65 1015.8
20260505023219 16 64 0.0 0.0 0.00 0.00 0.00 65 1015.7
20260505023018 16 30 0.0 0.0 0.00 0.00 0.00 66 1015.8
20260505022818 16 29 0.0 0.0 0.00 0.00 0.00 66 1015.8
20260505022619 16 29 0.0 1.6 0.00 0.00 0.00 66 1015.8
20260505022420 16 29 0.0 1.6 0.00 0.00 0.00 66 1015.7
20260505022218 16 29 0.0 1.6 0.00 0.00 0.00 66 1015.7
20260505021816 16 29 0.0 1.6 0.00 0.00 0.00 66 1015.6
20260505021613 16 29 0.0 1.6 0.00 0.00 0.00 66 1015.7
20260505021412 16 29 0.0 3.2 0.00 0.00 0.00 66 1015.6
20260505021212 16 29 0.0 3.2 0.00 0.00 0.00 66 1015.6
20260505021011 16 29 0.0 3.2 0.00 0.00 0.00 66 1015.6
20260505020810 16 29 0.0 3.2 0.00 0.00 0.00 66 1015.6
20260505020610 16 29 0.0 3.2 0.00 0.00 0.00 66 1015.6
20260505020408 16 28 0.0 1.6 0.00 0.00 0.00 66 1015.6
20260505020206 16 28 0.0 1.6 0.00 0.00 0.00 65 1015.6
20260505020007 16 28 0.0 1.6 0.00 0.00 0.00 66 1015.6
20260505015606 16 28 0.0 1.6 0.00 0.00 0.00 65 1015.6
20260505015406 16 28 0.0 1.6 0.00 0.00 0.00 64 1015.6
20260505015205 16 28 0.0 1.6 0.00 0.00 0.00 65 1015.6
20260505014800 16 28 0.0 1.6 0.00 0.00 0.00 64 1015.6
20260505014600 16 28 0.0 1.6 0.00 0.00 0.00 64 1015.5
20260505014156 16 28 0.0 1.6 0.00 0.00 0.00 64 1015.4
20260505013954 16 28 0.0 1.6 0.00 0.00 0.00 63 1015.4
20260505013550 16 28 0.0 1.6 0.00 0.00 0.00 62 1015.4
20260505013351 16 28 0.0 1.6 0.00 0.00 0.00 62 1015.3
20260505012746 17 28 0.0 1.6 0.00 0.00 0.00 62 1015.2
20260505012548 17 28 0.0 1.6 0.00 0.00 0.00 61 1015.2
20260505012347 17 28 0.0 1.6 0.00 0.00 0.00 61 1015.2
20260505011946 17 28 0.0 0.0 0.00 0.00 0.00 60 1015.1
20260505011745 17 28 0.0 0.0 0.00 0.00 0.00 60 1015.1
20260505011542 17 28 0.0 0.0 0.00 0.00 0.00 59 1015.1
20260505011341 17 28 0.0 0.0 0.00 0.00 0.00 59 1015.1
20260505010736 18 28 0.0 0.0 0.00 0.00 0.00 59 1015.1
20260505010337 18 28 0.0 0.0 0.00 0.00 0.00 58 1015.1
20260505010136 18 28 0.0 0.0 0.00 0.00 0.00 57 1015.0
20260505005935 18 28 0.0 0.0 0.00 0.00 0.00 57 1014.9
20260505005733 18 28 0.0 0.0 0.00 0.00 0.00 58 1014.9
20260505005534 18 28 0.0 0.0 0.00 0.00 0.00 56 1014.9
20260505005330 18 28 0.0 0.0 0.00 0.00 0.00 56 1014.8
20260505005130 18 28 0.0 0.0 0.00 0.00 0.00 56 1014.8
20260505004926 19 28 0.0 0.0 0.00 0.00 0.00 56 1014.7
20260505004524 19 28 0.0 0.0 0.00 0.00 0.00 55 1014.7
20260505004324 19 28 0.0 0.0 0.00 0.00 0.00 54 1014.7
20260505004125 19 28 0.0 0.0 0.00 0.00 0.00 54 1014.6
20260505003925 20 28 0.0 0.0 0.00 0.00 0.00 53 1014.6
20260505003725 20 28 0.0 0.0 0.00 0.00 0.00 53 1014.6
20260505003523 20 28 0.0 0.0 0.00 0.00 0.00 52 1014.5
20260505003322 20 28 0.0 0.0 0.00 0.00 0.00 52 1014.5
20260505003121 20 28 0.0 0.0 0.00 0.00 0.00 52 1014.5
20260505002718 20 28 0.0 0.0 0.00 0.00 0.00 52 1014.4
20260505002517 20 28 0.0 0.0 0.00 0.00 0.00 51 1014.4
20260505002315 20 28 0.0 0.0 0.00 0.00 0.00 50 1014.4
20260505001915 21 28 0.0 0.0 0.00 0.00 0.00 51 1014.3
20260505001713 21 28 0.0 0.0 0.00 0.00 0.00 51 1014.2
20260505001510 21 28 0.0 0.0 0.00 0.00 0.00 51 1014.3
20260505001311 21 28 0.0 0.0 0.00 0.00 0.00 50 1014.3
20260505001108 21 28 0.0 0.0 0.00 0.00 0.00 49 1014.2
20260505000909 21 28 0.0 0.0 0.00 0.00 0.00 48 1014.3
20260505000709 21 28 0.0 0.0 0.00 0.00 0.00 49 1014.3
20260505000508 21 28 0.0 0.0 0.00 0.00 0.00 49 1014.3
20260505000109 21 28 0.0 0.0 0.00 0.00 0.00 48 1014.3
20260504235909 22 28 0.0 0.0 0.00 0.00 0.00 48 1014.3
20260504235705 22 28 0.0 0.0 0.00 0.00 0.00 48 1014.2
20260504235503 22 28 0.0 0.0 0.00 0.00 0.00 48 1014.2
20260504235304 22 28 0.0 0.0 0.00 0.00 0.00 48 1014.2
20260504235104 22 28 0.0 0.0 0.00 0.00 0.00 49 1014.2
20260504234700 22 28 0.0 0.0 0.00 0.00 0.00 48 1014.2
20260504234458 22 28 0.0 0.0 0.00 0.00 0.00 48 1014.2
20260504234259 22 28 0.0 1.6 0.00 0.00 0.00 47 1014.2
20260504234055 22 28 0.0 1.6 0.00 0.00 0.00 47 1014.2
20260504233654 22 28 0.0 1.6 0.00 0.00 0.00 47 1014.1
20260504233454 23 28 0.0 1.6 0.00 0.00 0.00 48 1014.1
20260504233252 23 28 0.0 3.2 0.00 0.00 0.00 47 1014.1
20260504232647 23 22 0.0 3.2 0.00 0.00 0.00 48 1014.1
20260504232446 23 22 0.0 3.2 0.00 0.00 0.00 49 1014.1
20260504232043 23 22 0.0 3.2 0.00 0.00 0.00 46 1014.1
20260504231842 23 22 0.0 3.2 0.00 0.00 0.00 45 1014.0
20260504231642 23 13 0.0 1.6 0.00 0.00 0.00 46 1014.0
20260504231441 23 13 0.0 3.2 0.00 0.00 0.00 43 1014.1
20260504231241 23 13 0.0 3.2 0.00 0.00 0.00 44 1014.0
20260504230836 23 13 1.6 3.2 0.00 0.00 0.00 44 1014.0
20260504230634 23 13 1.6 3.2 0.00 0.00 0.00 44 1014.0
20260504230436 23 13 1.6 3.2 0.00 0.00 0.00 45 1014.0
20260504230232 23 101 1.6 6.4 0.00 0.00 0.00 44 1014.0
20260504230033 23 47 1.6 6.4 0.00 0.00 0.00 44 1014.0
20260504225832 23 46 1.6 6.4 0.00 0.00 0.00 44 1014.0
20260504225633 24 46 0.0 6.4 0.00 0.00 0.00 45 1014.0
20260504225433 24 44 0.0 6.4 0.00 0.00 0.00 43 1014.1
20260504225032 24 70 0.0 4.8 0.00 0.00 0.00 43 1014.0
20260504224832 24 70 1.6 4.8 0.00 0.00 0.00 44 1014.0
20260504224632 24 70 1.6 4.8 0.00 0.00 0.00 45 1014.0
20260504224432 24 69 1.6 4.8 0.00 0.00 0.00 43 1014.0
20260504224231 24 69 1.6 4.8 0.00 0.00 0.00 42 1013.9
20260504224034 24 48 1.6 4.8 0.00 0.00 0.00 43 1014.0
20260504223831 24 46 1.6 4.8 0.00 0.00 0.00 43 1014.0
20260504223633 24 43 1.6 4.8 0.00 0.00 0.00 43 1014.0
20260504223432 24 62 1.6 4.8 0.00 0.00 0.00 42 1014.0
20260504223233 24 62 1.6 4.8 0.00 0.00 0.00 44 1014.0
20260504223032 25 61 1.6 4.8 0.00 0.00 0.00 40 1014.1
20260504222632 25 20 1.6 9.7 0.00 0.00 0.00 41 1014.1
20260504222230 25 20 1.6 9.7 0.00 0.00 0.00 40 1014.1
20260504222031 25 20 1.6 9.7 0.00 0.00 0.00 40 1014.1
20260504221830 25 316 1.6 9.7 0.00 0.00 0.00 40 1014.1
20260504221628 25 355 1.6 8.0 0.00 0.00 0.00 41 1014.1
20260504221428 25 304 1.6 4.8 0.00 0.00 0.00 39 1014.1
20260504221228 25 107 1.6 4.8 0.00 0.00 0.00 38 1014.0
20260504221028 25 107 1.6 4.8 0.00 0.00 0.00 39 1014.1
20260504220828 25 55 0.0 4.8 0.00 0.00 0.00 39 1014.1
20260504220630 25 18 1.6 4.8 0.00 0.00 0.00 40 1014.1
20260504220425 25 18 1.6 4.8 0.00 0.00 0.00 39 1014.1
20260504220226 25 18 1.6 4.8 0.00 0.00 0.00 39 1014.1
20260504215825 25 10 1.6 4.8 0.00 0.00 0.00 39 1014.1
20260504215623 25 5 1.6 4.8 0.00 0.00 0.00 38 1014.1
20260504215218 25 63 1.6 4.8 0.00 0.00 0.00 39 1014.1
20260504215019 25 350 1.6 4.8 0.00 0.00 0.00 39 1014.1
20260504214818 25 350 1.6 4.8 0.00 0.00 0.00 38 1014.1
20260504214614 25 343 1.6 6.4 0.00 0.00 0.00 39 1014.1
20260504214215 25 148 1.6 6.4 0.00 0.00 0.00 37 1014.1
20260504213814 25 163 1.6 6.4 0.00 0.00 0.00 38 1014.0
20260504213615 25 0 1.6 4.8 0.00 0.00 0.00 39 1014.1
20260504213216 25 345 1.6 8.0 0.00 0.00 0.00 42 1014.1
20260504213015 25 109 1.6 8.0 0.00 0.00 0.00 41 1014.1
20260504212615 25 111 1.6 8.0 0.00 0.00 0.00 39 1014.1
20260504212415 25 256 0.0 8.0 0.00 0.00 0.00 39 1014.0
20260504212215 25 197 1.6 3.2 0.00 0.00 0.00 40 1014.0
20260504211814 25 196 1.6 6.4 0.00 0.00 0.00 38 1014.1
20260504211613 25 196 1.6 6.4 0.00 0.00 0.00 37 1014.1
20260504211413 25 196 1.6 6.4 0.00 0.00 0.00 37 1014.0
20260504211210 25 195 1.6 6.4 0.00 0.00 0.00 38 1014.1
20260504211008 25 222 1.6 4.8 0.00 0.00 0.00 39 1014.1
20260504210610 25 161 1.6 4.8 0.00 0.00 0.00 38 1014.2
20260504210406 25 90 1.6 9.7 0.00 0.00 0.00 37 1014.1
20260504210205 25 90 1.6 9.7 0.00 0.00 0.00 37 1014.1
20260504205604 25 217 1.6 9.7 0.00 0.00 0.00 38 1014.1
20260504205407 25 150 1.6 4.8 0.00 0.00 0.00 38 1014.1
20260504205205 25 150 1.6 8.0 0.00 0.00 0.00 38 1014.2
20260504205004 25 22 3.2 8.0 0.00 0.00 0.00 38 1014.1
20260504204805 25 19 3.2 9.7 0.00 0.00 0.00 37 1014.2
20260504204602 25 19 3.2 9.7 0.00 0.00 0.00 38 1014.2
20260504204401 25 311 3.2 9.7 0.00 0.00 0.00 37 1014.3
20260504204159 25 145 1.6 9.7 0.00 0.00 0.00 38 1014.2
20260504204000 25 101 1.6 9.7 0.00 0.00 0.00 39 1014.3
20260504203758 25 26 1.6 9.7 0.00 0.00 0.00 40 1014.4
20260504203559 25 150 1.6 9.7 0.00 0.00 0.00 39 1014.3
20260504203359 25 186 1.6 9.7 0.00 0.00 0.00 38 1014.3
20260504202757 25 62 1.6 6.4 0.00 0.00 0.00 38 1014.4
20260504202556 25 82 1.6 6.4 0.00 0.00 0.00 38 1014.4
20260504202358 25 82 1.6 6.4 0.00 0.00 0.00 39 1014.4
20260504202154 25 77 1.6 8.0 0.00 0.00 0.00 40 1014.4
20260504201955 25 105 1.6 8.0 0.00 0.00 0.00 39 1014.6
20260504201555 25 105 1.6 8.0 0.00 0.00 0.00 37 1014.6
20260504201354 25 100 1.6 8.0 0.00 0.00 0.00 38 1014.6
20260504200953 25 178 1.6 12.9 0.00 0.00 0.00 36 1014.5
20260504200751 25 178 3.2 12.9 0.00 0.00 0.00 36 1014.6
20260504200549 25 173 3.2 12.9 0.00 0.00 0.00 36 1014.6
20260504200351 25 173 3.2 12.9 0.00 0.00 0.00 38 1014.6
20260504200151 25 157 3.2 12.9 0.00 0.00 0.00 36 1014.5
20260504195747 25 0 1.6 9.7 0.00 0.00 0.00 38 1014.6
20260504195547 25 5 1.6 4.8 0.00 0.00 0.00 38 1014.6
20260504195344 25 0 1.6 4.8 0.00 0.00 0.00 36 1014.6
20260504195144 25 69 1.6 6.4 0.00 0.00 0.00 35 1014.6
20260504194944 25 69 1.6 8.0 0.00 0.00 0.00 36 1014.7
20260504194543 25 44 3.2 12.9 0.00 0.00 0.00 38 1014.9
20260504194341 25 44 3.2 12.9 0.00 0.00 0.00 39 1014.9
20260504194141 25 355 3.2 12.9 0.00 0.00 0.00 38 1014.9
20260504193940 25 268 3.2 12.9 0.00 0.00 0.00 36 1015.0
20260504193541 25 309 3.2 9.7 0.00 0.00 0.00 36 1015.0
20260504193340 25 190 3.2 9.7 0.00 0.00 0.00 36 1015.0
20260504192941 25 292 3.2 9.7 0.00 0.00 0.00 37 1015.0
20260504192740 25 38 3.2 9.7 0.00 0.00 0.00 36 1015.1
20260504192539 25 160 3.2 8.0 0.00 0.00 0.00 38 1015.1
20260504192338 25 80 1.6 8.0 0.00 0.00 0.00 38 1015.1
20260504192139 25 286 1.6 8.0 0.00 0.00 0.00 36 1015.2
20260504191939 25 111 1.6 6.4 0.00 0.00 0.00 37 1015.1
20260504191739 24 57 1.6 6.4 0.00 0.00 0.00 36 1015.1
20260504191537 24 80 1.6 6.4 0.00 0.00 0.00 37 1015.2
20260504191335 24 80 1.6 6.4 0.00 0.00 0.00 37 1015.2
20260504191134 24 13 1.6 6.4 0.00 0.00 0.00 37 1015.3
20260504190934 24 5 1.6 8.0 0.00 0.00 0.00 36 1015.4
20260504190733 24 311 3.2 8.0 0.00 0.00 0.00 36 1015.4
20260504190534 24 306 3.2 8.0 0.00 0.00 0.00 36 1015.4
20260504190136 24 309 3.2 8.0 0.00 0.00 0.00 38 1015.4
20260504185934 24 184 3.2 8.0 0.00 0.00 0.00 37 1015.4
20260504185734 24 311 3.2 6.4 0.00 0.00 0.00 36 1015.3
20260504185535 24 113 3.2 6.4 0.00 0.00 0.00 35 1015.3
20260504185134 24 293 3.2 8.0 0.00 0.00 0.00 35 1015.4
20260504184732 24 270 3.2 9.7 0.00 0.00 0.00 36 1015.4
20260504184532 24 305 3.2 9.7 0.00 0.00 0.00 37 1015.5
20260504184332 24 355 3.2 9.7 0.00 0.00 0.00 37 1015.4
20260504184131 24 299 1.6 9.7 0.00 0.00 0.00 36 1015.4
20260504183732 24 109 1.6 6.4 0.00 0.00 0.00 37 1015.5
20260504183530 24 109 1.6 6.4 0.00 0.00 0.00 36 1015.4
20260504183330 24 107 1.6 6.4 0.00 0.00 0.00 36 1015.5
20260504183129 24 110 1.6 6.4 0.00 0.00 0.00 38 1015.5
20260504182931 23 88 1.6 4.8 0.00 0.00 0.00 38 1015.5
20260504182530 23 87 3.2 9.7 0.00 0.00 0.00 37 1015.5
20260504182130 23 146 3.2 9.7 0.00 0.00 0.00 38 1015.8
20260504181931 23 166 1.6 9.7 0.00 0.00 0.00 36 1015.8
20260504181729 23 98 1.6 6.4 0.00 0.00 0.00 39 1015.9
20260504180927 23 40 3.2 8.0 0.00 0.00 0.00 38 1015.9
20260504175723 23 44 1.6 4.8 0.00 0.00 0.00 38 1015.8
20260504175519 23 30 3.2 4.8 0.00 0.00 0.00 40 1015.9
20260504175319 23 342 3.2 6.4 0.00 0.00 0.00 39 1015.9
20260504175119 23 309 1.6 6.4 0.00 0.00 0.00 38 1015.9
20260504174920 23 38 1.6 6.4 0.00 0.00 0.00 38 1015.9
20260504174719 23 299 1.6 6.4 0.00 0.00 0.00 39 1016.1
20260504174319 23 147 1.6 4.8 0.00 0.00 0.00 39 1015.9
20260504174120 23 146 3.2 4.8 0.00 0.00 0.00 38 1015.9
20260504173921 23 153 3.2 8.0 0.00 0.00 0.00 39 1016.1
20260504173721 23 236 3.2 8.0 0.00 0.00 0.00 39 1016.1
20260504173519 23 236 3.2 8.0 0.00 0.00 0.00 38 1016.1
20260504173320 23 322 3.2 8.0 0.00 0.00 0.00 39 1016.1
20260504173120 23 343 3.2 8.0 0.00 0.00 0.00 39 1016.1
20260504172920 23 14 3.2 6.4 0.00 0.00 0.00 40 1016.1
20260504172720 22 98 3.2 6.4 0.00 0.00 0.00 40 1016.2
20260504172518 22 202 3.2 8.0 0.00 0.00 0.00 40 1016.2
20260504172319 22 45 1.6 8.0 0.00 0.00 0.00 41 1016.2
20260504172119 22 53 1.6 8.0 0.00 0.00 0.00 40 1016.2
20260504171718 22 349 3.2 8.0 0.00 0.00 0.00 40 1016.2
20260504171315 22 167 3.2 8.0 0.00 0.00 0.00 37 1016.3
20260504170916 22 237 1.6 8.0 0.00 0.00 0.00 40 1016.4
20260504170716 22 5 1.6 8.0 0.00 0.00 0.00 39 1016.5
20260504170516 22 0 1.6 8.0 0.00 0.00 0.00 41 1016.6
20260504170315 22 5 3.2 8.0 0.00 0.00 0.00 42 1016.6
20260504170113 22 0 3.2 8.0 0.00 0.00 0.00 41 1016.6
20260504160305 21 146 1.6 6.4 0.00 0.00 0.00 44 1017.5
20260504160108 21 175 1.6 4.8 0.00 0.00 0.00 45 1017.6
20260504151107 21 177 1.6 6.4 0.00 0.00 0.00 51 1017.8
20260504150706 21 117 1.6 6.4 0.00 0.00 0.00 54 1017.7
20260504150506 21 117 1.6 6.4 0.00 0.00 0.00 55 1017.7
20260504150305 20 117 1.6 6.4 0.00 0.00 0.00 55 1017.7
20260504150106 20 117 1.6 6.4 0.00 0.00 0.00 54 1017.7
20260504141302 19 113 0.0 3.2 0.00 0.00 0.00 59 1018.0
20260504141102 19 113 0.0 3.2 0.00 0.00 0.00 59 1018.0
20260504140658 19 112 0.0 3.2 0.00 0.00 0.00 63 1018.0
20260504140457 18 111 0.0 3.2 0.00 0.00 0.00 65 1017.9
20260504130431 9 229 0.0 0.0 0.00 0.00 0.00 93 1018.0
20260504130228 9 229 0.0 0.0 0.00 0.00 0.00 93 1017.9
20260504120147 5 229 0.0 0.0 0.00 0.00 0.00 92 1018.3
20260504110124 3 229 0.0 0.0 0.00 0.00 0.00 91 1018.6
20260504081954 4 229 0.0 0.0 0.00 0.00 0.00 90 1018.1
20260504081753 4 229 0.0 0.0 0.00 0.00 0.00 90 1018.1
20260504081554 4 229 0.0 0.0 0.00 0.00 0.00 90 1018.1
20260504081352 4 229 0.0 0.0 0.00 0.00 0.00 89 1018.1
20260504081149 4 229 0.0 0.0 0.00 0.00 0.00 90 1018.1
20260504080947 4 229 0.0 0.0 0.00 0.00 0.00 90 1018.1
20260504080746 4 229 0.0 0.0 0.00 0.00 0.00 90 1018.1
20260504080549 4 229 0.0 0.0 0.00 0.00 0.00 90 1018.1
20260504080345 4 229 0.0 0.0 0.00 0.00 0.00 90 1018.0